Location: McCloud Nature Park
(39.8272°N, 86.6824°W)
Time: 17:40:49
(UTC-05:00)

Amateur Radio Satellites - All Passes

Search period start: 25 May 2016 17:10
Search period end: 26 May 2016 17:10
Location: McCloud Nature Park, 39.8272°N, 86.6824°W

Satellite Date Start Highest point End Downlink Frequencies (MHz)
Time Altitude Azimuth
GOMX 1 25 May 17:11:41 17:13:49 12° 61° (ENE) 17:15:56 467.674
HORYU 2 25 May 17:13:42 17:17:55 43° 261° (W) 17:22:10 437.375
Cosmos 2504 25 May 17:30:45 17:37:29 45° 89° (E) 17:44:31 435.465 / 435.565
STARS 25 May 17:32:07 17:36:17 45° 288° (WNW) 17:40:26 437.465
CUTE-I 25 May 17:34:58 17:39:45 36° 68° (ENE) 17:44:34 437.470
AO-7 25 May 17:39:58 17:44:26 15° 270° (W) 17:48:57 29.400- 29.500
RS-15 25 May 17:52:29 18:03:42 76° 117° (ESE) 18:15:35 29.354- 29.394
LilacSat-2 25 May 18:00:19 18:03:59 49° 75° (ENE) 18:07:41 437.200
CUBESAT XI-V 25 May 18:06:09 18:10:50 64° 101° (E) 18:15:30 437.345
NOAA 18 25 May 18:06:22 18:11:50 88° 75° (ENE) 18:17:19 137.9125
BRITE-PL 25 May 18:08:45 18:14:21 80° 75° (ENE) 18:20:04 437.365/2234.400
DOVE 4 25 May 18:10:29 18:14:19 21° 66° (ENE) 18:18:04 437.250
Cubesat XI-IV 25 May 18:27:14 18:32:32 77° 257° (WSW) 18:37:52 437.490
MOZHAYETS 4 25 May 18:27:44 18:28:26 10° 299° (WNW) 18:29:07
NOAA 15 25 May 18:31:10 18:36:15 47° 260° (W) 18:41:23 137.62
PCSat 25 May 18:38:12 18:42:51 28° 51° (NE) 18:47:28 145.827
O/OREOS (USA 219) 25 May 18:38:14 18:40:17 13° 53° (NE) 18:42:21 437.305
GOMX 1 25 May 18:45:35 18:51:05 87° 75° (ENE) 18:56:33 467.674
AUBIESAT-1 25 May 18:53:09 18:56:34 25° 66° (ENE) 18:59:49 437.475
YUBILEINY 25 May 18:54:36 18:59:55 17° 298° (WNW) 19:05:15 435.215
M-CUBED/EXP-1 PRIME 25 May 18:57:18 19:01:10 34° 67° (ENE) 19:04:47 437.505
CINEMA 3 25 May 18:58:47 19:01:57 18° 66° (ENE) 19:05:03 145.822/145.860
CUTE-I 25 May 19:15:21 19:19:49 28° 264° (W) 19:24:20 437.470
Cosmos 2504 25 May 19:24:47 19:31:02 31° 289° (WNW) 19:37:34 435.465 / 435.565
HO-68 25 May 19:30:15 19:37:09 54° 68° (ENE) 19:44:03 435.675
CANX-2 25 May 19:34:48 19:38:43 40° 72° (ENE) 19:42:40 2200.000
LilacSat-2 25 May 19:37:53 19:38:34 10° 269° (W) 19:39:15 437.200
SEEDS 25 May 19:42:24 19:46:04 30° 70° (ENE) 19:49:44 437.485
CUBESAT XI-V 25 May 19:45:18 19:47:40 14° 297° (WNW) 19:50:00 437.345
DOVE 4 25 May 19:46:34 19:51:40 49° 261° (W) 19:56:38 437.250
BRITE-PL 25 May 19:50:40 19:53:24 14° 272° (W) 19:56:08 437.365/2234.400
NOAA 18 25 May 19:51:50 19:53:09 11° 271° (W) 19:54:27 137.9125
BEESAT 3 25 May 19:52:30 19:54:53 15° 44° (NE) 19:57:14 437.485
Oscar 11 25 May 20:00:00 20:01:34 12° 63° (ENE) 20:03:08 145.826/435.025
CUTE 1.7 + AOD 2 25 May 20:02:12 20:06:22 74° 77° (ENE) 20:10:35 437.475
CUBEBUG 2 25 May 20:03:05 20:06:40 25° 69° (ENE) 20:10:11 437.445
STRAND 1 25 May 20:06:33 20:11:43 81° 103° (ESE) 20:16:53 437.568
RS-15 25 May 20:06:55 20:17:19 37° 322° (NW) 20:28:18 29.354- 29.394
ZACube-1 25 May 20:09:21 20:11:18 13° 65° (ENE) 20:13:13 437.345
O/OREOS (USA 219) 25 May 20:15:44 20:20:11 68° 251° (WSW) 20:24:36 437.305
PCSat 25 May 20:21:17 20:26:23 43° 249° (WSW) 20:31:27 145.827
AUBIESAT-1 25 May 20:27:27 20:30:59 26° 258° (WSW) 20:34:21 437.475
GOMX 1 25 May 20:27:58 20:29:44 11° 272° (W) 20:31:30 467.674
AIST 1 25 May 20:30:32 20:32:51 14° 85° (E) 20:35:10
COMPASS 1 25 May 20:32:09 20:36:16 84° 77° (ENE) 20:40:27 437.405
M-CUBED/EXP-1 PRIME 25 May 20:32:37 20:35:43 19° 259° (W) 20:38:42 437.505
CINEMA 3 25 May 20:34:06 20:38:45 47° 261° (W) 20:43:13 145.822/145.860
UWE-3 25 May 20:35:55 20:39:56 38° 72° (ENE) 20:43:52 435.000/436.395/437.385
AAUSAT CUBESAT 2 25 May 20:36:55 20:41:01 75° 77° (ENE) 20:45:11 437.432
PRISM 25 May 20:45:03 20:48:54 35° 98° (E) 20:52:44 437.425
FUNcube-1 25 May 20:46:38 20:50:22 31° 71° (ENE) 20:54:03 145.935
GONETS M04 25 May 20:49:36 20:55:46 22° 80° (E) 21:01:53
BEESAT 2 25 May 20:50:04 20:53:39 31° 51° (NE) 20:57:12 435.950
CUSAT 1 25 May 21:11:28 21:14:15 12° 55° (NE) 21:16:55 437.405
CANX-2 25 May 21:12:11 21:14:44 16° 268° (W) 21:17:20 2200.000
SEEDS 25 May 21:18:41 21:21:47 20° 266° (W) 21:24:56 437.485
HO-68 25 May 21:19:12 21:25:07 28° 265° (W) 21:31:06 435.675
ISS 25 May 21:21:38 21:24:05 20° 132° (SE) 21:26:33 145.825
DELFI C3 25 May 21:25:27 21:29:15 46° 73° (ENE) 21:33:04 145.870
BEESAT 3 25 May 21:29:01 21:32:54 55° 242° (WSW) 21:36:45 437.485
Oscar 11 25 May 21:32:54 21:37:08 63° 259° (WSW) 21:41:25 145.826/435.025
CUBEBUG 2 25 May 21:39:22 21:43:11 28° 264° (W) 21:46:54 437.445
ZACube-1 25 May 21:42:57 21:47:09 54° 260° (W) 21:51:16 437.345
STRAND 1 25 May 21:47:57 21:50:11 13° 300° (WNW) 21:52:24 437.568
AIST 1 25 May 22:05:46 22:09:59 46° 281° (W) 22:14:15
HUMSAT D 25 May 22:09:57 22:14:01 70° 76° (ENE) 22:18:05 437.325/437.525
Cosmos 2499 25 May 22:11:53 22:18:27 40° 87° (E) 22:25:25 435.465 / 435.565
UWE-3 25 May 22:13:38 22:16:31 17° 267° (W) 22:19:21 435.000/436.395/437.385
PRISM 25 May 22:21:03 22:23:57 19° 294° (WNW) 22:26:50 437.425
FUNcube-1 25 May 22:23:27 22:26:38 20° 266° (W) 22:29:48 145.935
AISAT 25 May 22:24:24 22:26:51 15° 64° (ENE) 22:29:19 437.250
DANDE 25 May 22:24:38 22:31:19 25° 65° (ENE) 22:37:39 436.750
RS-15 25 May 22:26:35 22:34:51 20° 357° (N) 22:43:19 29.354- 29.394
BEESAT 2 25 May 22:28:12 22:31:19 22° 248° (WSW) 22:34:26 435.950
50 SAT 25 May 22:37:42 22:40:03 17° 67° (ENE) 22:42:24 437.505
UNISAT 6 25 May 22:41:04 22:45:02 35° 98° (E) 22:49:01 437.425
AIST 2 25 May 22:41:38 22:45:21 31° 51° (NE) 22:49:03 435.215
GONETS M04 25 May 22:42:46 22:51:35 76° 279° (W) 23:00:23
UKube-1 25 May 22:43:56 22:46:25 15° 64° (ENE) 22:48:54 .
TIGRISAT 25 May 22:49:17 22:53:21 41° 99° (E) 22:57:27 435.000
CUSAT 1 25 May 22:50:24 22:58:14 62° 76° (ENE) 23:04:47 437.405
ESTCUBE 1 25 May 22:51:55 22:56:05 38° 71° (ENE) 23:00:17 437.505/2401.250
ISS 25 May 22:57:12 23:00:20 42° 328° (NNW) 23:03:28 145.825
PHONESAT 2.4 25 May 23:00:12 23:03:02 32° 156° (SSE) 23:05:53 2401.200-2431.200
DELFI C3 25 May 23:02:48 23:04:22 12° 269° (W) 23:05:57 145.870
NANOSAT C BR1 25 May 23:13:19 23:15:13 13° 91° (E) 23:17:08 145.865
CUBEBUG 1 25 May 23:21:18 23:25:38 55° 73° (ENE) 23:29:59 437.445
ANTELSAT 25 May 23:22:08 23:26:26 78° 285° (WNW) 23:30:46 437.575/2403.000
VELOX 1 25 May 23:22:39 23:27:01 57° 73° (ENE) 23:31:24 145.980
DX 1 25 May 23:24:38 23:28:52 51° 73° (ENE) 23:33:08 434.975-435.025
DUCHIFAT 1 25 May 23:51:21 23:55:09 33° 97° (E) 23:58:55 145.980
SO-50 25 May 23:55:45 23:59:03 18° 110° (ESE) 00:02:23 436.795
SPROUT 25 May 23:57:56 00:02:07 52° 74° (ENE) 00:06:19 437.525
AISAT 25 May 23:58:29 00:02:52 54° 260° (W) 00:07:16 437.250
Cosmos 2499 26 May 00:05:04 00:11:34 35° 288° (WNW) 00:18:29 435.465 / 435.565
DANDE 26 May 00:06:32 00:15:00 76° 264° (W) 00:22:41 436.750
50 SAT 26 May 00:10:22 00:13:33 29° 263° (W) 00:16:46 437.505
UKube-1 26 May 00:17:51 00:22:03 49° 260° (W) 00:26:16 .
BUGSAT 1 26 May 00:18:19 00:21:54 30° 97° (E) 00:25:27 437.445
UNISAT 6 26 May 00:18:26 00:21:31 20° 293° (WNW) 00:24:37 437.425
AIST 2 26 May 00:20:20 00:23:42 24° 247° (WSW) 00:27:02 435.215
POPSAT HIP 1 26 May 00:26:48 00:31:01 83° 284° (WNW) 00:35:12 437.405
TIGRISAT 26 May 00:26:58 00:29:44 17° 294° (WNW) 00:32:31 435.000
QB50P1 26 May 00:27:25 00:31:38 80° 284° (WNW) 00:35:48 145.935-145.965
QB50P2 26 May 00:28:59 00:33:11 73° 285° (WNW) 00:37:22 145.880/145.840
ESTCUBE 1 26 May 00:29:48 00:33:01 19° 267° (W) 00:36:15 437.505/2401.250
TISAT 1 26 May 00:30:07 00:33:54 33° 71° (ENE) 00:37:42 437.305
POLYITAN 1 26 May 00:31:26 00:35:37 71° 285° (WNW) 00:39:48 437.675
CUSAT 1 26 May 00:33:36 00:39:34 25° 278° (W) 00:44:54 437.405
ISS 26 May 00:35:48 00:37:26 13° 347° (NNW) 00:39:04 145.825
PHONESAT 2.4 26 May 00:36:30 00:39:38 87° 347° (NNW) 00:42:47 2401.200-2431.200
JAS-2 26 May 00:37:42 00:43:45 26° 90° (E) 00:49:16 435.910
RS-15 26 May 00:42:30 00:53:00 31° 32° (NNE) 01:03:32 29.354- 29.394
GONETS M04 26 May 00:45:29 00:50:00 15° 300° (WNW) 00:54:32
BEESAT 26 May 00:46:38 00:47:44 11° 60° (ENE) 00:48:50 436.000
NANOSAT C BR1 26 May 00:47:11 00:51:14 49° 287° (WNW) 00:55:15 145.865
CUBEBUG 1 26 May 01:00:14 01:02:14 13° 269° (W) 01:04:15 437.445
VELOX 1 26 May 01:01:51 01:03:49 13° 269° (W) 01:05:48 145.980
DX 1 26 May 01:03:05 01:05:20 14° 268° (W) 01:07:37 434.975-435.025
DUCHIFAT 1 26 May 01:27:37 01:30:36 19° 293° (WNW) 01:33:36 145.980
SO-50 26 May 01:34:20 01:39:08 54° 306° (NW) 01:43:58 436.795
SPROUT 26 May 01:36:27 01:38:22 13° 269° (W) 01:40:17 437.525
SWISSCUBE 26 May 01:50:14 01:54:50 52° 72° (ENE) 01:59:28 437.505
DANDE 26 May 01:52:12 01:56:22 15° 283° (WNW) 02:00:24 436.750
BUGSAT 1 26 May 01:54:09 01:57:06 20° 293° (WNW) 02:00:01 437.445
ITUPSAT 1 26 May 01:55:18 01:59:54 52° 72° (ENE) 02:04:33 437.325
TISAT 1 26 May 02:06:31 02:09:37 20° 266° (W) 02:12:43 437.305
PHONESAT 2.4 26 May 02:13:19 02:16:27 87° 8° (N) 02:19:35 2401.200-2431.200
ISS 26 May 02:13:53 02:15:01 11° 8° (N) 02:16:09 145.825
Oscar 19 26 May 02:13:57 02:19:08 74° 103° (ESE) 02:24:16 437.125/150
BEESAT 26 May 02:20:02 02:24:47 85° 258° (WSW) 02:29:34 436.000
Gurwin Techsat 1B 26 May 02:21:08 02:26:01 36° 97° (E) 02:30:51 435.225
JAS-2 26 May 02:21:50 02:29:13 58° 290° (WNW) 02:35:50 435.910
ITAMSAT 1 26 May 02:51:45 02:56:07 26° 95° (E) 03:00:27 435.822/435.867
STARS 26 May 02:53:49 02:56:00 14° 63° (ENE) 02:58:11 437.465
RS-15 26 May 02:55:09 03:07:34 84° 58° (ENE) 03:19:53 29.354- 29.394
YUBILEINY 26 May 03:04:19 03:12:38 46° 75° (ENE) 03:20:57 435.215
SO-50 26 May 03:19:59 03:20:42 10° 325° (NW) 03:21:25 436.795
Cosmos 2504 26 May 03:23:56 03:29:10 17° 64° (ENE) 03:34:31 435.465 / 435.565
SWISSCUBE 26 May 03:30:08 03:32:56 15° 268° (W) 03:35:44 437.505
ITUPSAT 1 26 May 03:35:14 03:38:02 16° 268° (W) 03:40:52 437.325
AO-7 26 May 03:45:10 03:52:39 35° 98° (E) 04:00:02 29.400- 29.500
KKS-1 26 May 03:46:33 03:51:01 83° 257° (WSW) 03:55:32 437.445
MOZHAYETS 4 26 May 03:48:11 03:52:42 71° 75° (ENE) 03:57:16
ISS 26 May 03:49:27 03:52:19 27° 27° (NNE) 03:55:11 145.825
PHONESAT 2.4 26 May 03:50:14 03:53:03 31° 205° (SSW) 03:55:52 2401.200-2431.200
Oscar 19 26 May 03:55:13 03:57:48 14° 299° (WNW) 04:00:22 437.125/150
Cosmos 2491 26 May 03:57:09 04:05:34 52° 89° (E) 04:13:59 435.465 / 435.565
Gurwin Techsat 1B 26 May 04:01:19 04:05:48 28° 293° (WNW) 04:10:16 435.225
JAS-2 26 May 04:10:24 04:12:28 11° 310° (NW) 04:14:30 435.910
STARS 26 May 04:27:32 04:31:52 57° 259° (W) 04:36:13 437.465
ITAMSAT 1 26 May 04:30:52 04:35:37 37° 291° (WNW) 04:40:22 435.822/435.867
YUBILEINY 26 May 05:01:25 05:09:13 38° 274° (W) 05:17:02 435.215
HORYU 2 26 May 05:05:14 05:09:18 35° 98° (E) 05:13:21 437.375
CUBESAT XI-V 26 May 05:08:24 05:12:57 56° 74° (ENE) 05:17:34 437.345
RS-15 26 May 05:09:16 05:18:38 27° 259° (W) 05:27:58 29.354- 29.394
Cosmos 2504 26 May 05:15:13 05:23:41 85° 84° (E) 05:32:32 435.465 / 435.565
AO-85 26 May 05:21:18 05:24:52 18° 108° (ESE) 05:28:26 145.980
ISS 26 May 05:25:47 05:28:48 35° 224° (SW) 05:31:48 145.825
MOZHAYETS 4 26 May 05:29:49 05:30:21 10° 271° (W) 05:30:53
AO-7 26 May 05:37:35 05:45:36 53° 295° (WNW) 05:53:36 29.400- 29.500
STRAND 1 26 May 05:45:54 05:48:14 13° 60° (ENE) 05:50:35 437.568
CUTE-I 26 May 05:53:55 05:56:52 15° 91° (E) 05:59:48 437.470
Cosmos 2491 26 May 05:54:49 06:02:38 34° 289° (WNW) 06:10:30 435.465 / 435.565
BRITE-PL 26 May 06:15:46 06:20:08 27° 93° (E) 06:24:11 437.365/2234.400
NOAA 18 26 May 06:29:20 06:34:27 39° 99° (E) 06:39:33 137.9125
HORYU 2 26 May 06:42:19 06:45:39 21° 293° (WNW) 06:48:57 437.375
Cubesat XI-IV 26 May 06:45:16 06:50:25 46° 99° (E) 06:55:33 437.490
NOAA 15 26 May 06:46:48 06:52:06 70° 102° (ESE) 06:57:21 137.62
CUBESAT XI-V 26 May 06:48:16 06:50:41 14° 270° (W) 06:53:07 437.345
GOMX 1 26 May 06:49:39 06:53:34 26° 94° (E) 06:57:16 467.674
AO-85 26 May 06:59:28 07:04:54 66° 304° (NW) 07:10:15 145.980
LilacSat-2 26 May 07:08:24 07:12:12 87° 96° (E) 07:15:59 437.200
Cosmos 2504 26 May 07:10:38 07:16:02 19° 280° (W) 07:21:36 435.465 / 435.565
STRAND 1 26 May 07:21:39 07:26:44 77° 257° (WSW) 07:31:52 437.568
CUTE-I 26 May 07:32:03 07:37:22 66° 287° (WNW) 07:42:40 437.470
PRISM 26 May 07:34:03 07:37:22 24° 68° (ENE) 07:40:44 437.425
AO-7 26 May 07:34:03 07:36:27 11° 316° (NW) 07:38:52 29.400- 29.500
DOVE 4 26 May 07:46:47 07:51:04 47° 99° (E) 07:55:08 437.250
CUTE 1.7 + AOD 2 26 May 07:49:25 07:51:35 14° 91° (E) 07:53:45 437.475
BRITE-PL 26 May 07:54:02 07:58:36 32° 292° (WNW) 08:02:51 437.365/2234.400
Cosmos 2499 26 May 08:03:59 08:08:44 16° 62° (ENE) 08:13:33 435.465 / 435.565
AUBIESAT-1 26 May 08:07:27 08:09:26 15° 99° (E) 08:11:24 437.475
NOAA 18 26 May 08:10:21 08:14:54 28° 295° (WNW) 08:19:27 137.9125
M-CUBED/EXP-1 PRIME 26 May 08:12:08 08:14:43 21° 101° (ESE) 08:17:17 437.505
AIST 1 26 May 08:13:33 08:17:37 37° 77° (ENE) 08:21:38
COMPASS 1 26 May 08:17:12 08:19:28 14° 92° (E) 08:21:44 437.405
AAUSAT CUBESAT 2 26 May 08:21:48 08:23:37 12° 91° (E) 08:25:26 437.432
Cubesat XI-IV 26 May 08:26:03 08:30:10 23° 295° (WNW) 08:34:17 437.490
SO-50 26 May 08:27:18 08:30:17 16° 41° (NE) 08:33:12 436.795
GOMX 1 26 May 08:27:35 08:31:37 28° 292° (WNW) 08:35:26 467.674
NOAA 15 26 May 08:28:13 08:31:16 16° 299° (WNW) 08:34:17 137.62
CINEMA 3 26 May 08:29:42 08:33:38 39° 98° (E) 08:37:31 145.822/145.860
AO-85 26 May 08:43:47 08:46:22 13° 323° (NW) 08:48:55 145.980
HO-68 26 May 08:45:58 08:53:04 60° 102° (ESE) 09:00:08 435.675
O/OREOS (USA 219) 26 May 08:49:58 08:52:34 15° 99° (E) 08:55:09 437.305
GONETS M04 26 May 08:54:09 09:02:38 53° 77° (ENE) 09:11:02
CANX-2 26 May 08:55:50 09:00:07 88° 288° (WNW) 09:04:25 2200.000
SEEDS 26 May 09:01:53 09:06:07 67° 100° (E) 09:10:22 437.485
PRISM 26 May 09:09:04 09:12:34 26° 264° (W) 09:16:06 437.425
PCSat 26 May 09:19:29 09:23:58 27° 108° (ESE) 09:28:29 145.827
Oscar 11 26 May 09:21:15 09:24:48 24° 95° (E) 09:28:21 145.826/435.025
CUTE 1.7 + AOD 2 26 May 09:23:33 09:27:41 48° 286° (WNW) 09:31:48 437.475
DOVE 4 26 May 09:25:51 09:28:18 15° 296° (WNW) 09:30:42 437.250
CUBEBUG 2 26 May 09:30:03 09:34:09 59° 100° (E) 09:38:18 437.445
ZACube-1 26 May 09:32:05 09:35:42 27° 96° (E) 09:39:20 437.345
UNISAT 6 26 May 09:39:22 09:43:09 29° 70° (ENE) 09:46:52 437.425
AUBIESAT-1 26 May 09:41:13 09:44:01 25° 294° (WNW) 09:46:46 437.475
M-CUBED/EXP-1 PRIME 26 May 09:46:55 09:49:11 18° 297° (WNW) 09:51:26 437.505
TIGRISAT 26 May 09:47:19 09:51:14 33° 71° (ENE) 09:55:06 435.000
COMPASS 1 26 May 09:51:13 09:55:15 45° 287° (WNW) 09:59:16 437.405
AIST 1 26 May 09:52:07 09:54:51 17° 274° (W) 09:57:35
Cosmos 2499 26 May 09:54:37 10:03:13 77° 82° (E) 10:12:07 435.465 / 435.565
AAUSAT CUBESAT 2 26 May 09:55:18 09:59:23 51° 286° (WNW) 10:03:27 437.432
HUMSAT D 26 May 09:56:05 09:57:35 12° 91° (E) 09:59:05 437.325/437.525
UWE-3 26 May 10:02:01 10:06:12 84° 284° (WNW) 10:10:26 435.000/436.395/437.385
SO-50 26 May 10:06:38 10:11:20 74° 240° (WSW) 10:15:51 436.795
CINEMA 3 26 May 10:07:54 10:10:27 16° 294° (WNW) 10:13:00 145.822/145.860
FUNcube-1 26 May 10:10:38 10:14:50 75° 103° (ESE) 10:19:03 145.935
ANTELSAT 26 May 10:19:57 10:24:20 83° 75° (ENE) 10:28:40 437.575/2403.000
O/OREOS (USA 219) 26 May 10:27:05 10:31:30 49° 295° (WNW) 10:35:57 437.305
HO-68 26 May 10:34:33 10:40:16 27° 300° (WNW) 10:46:01 435.675
DELFI C3 26 May 10:38:19 10:42:23 89° 108° (ESE) 10:46:25 145.870
SEEDS 26 May 10:40:09 10:41:15 11° 297° (WNW) 10:42:22 437.485
DUCHIFAT 1 26 May 10:42:48 10:46:10 23° 68° (ENE) 10:49:31 145.980
JAS-2 26 May 10:51:10 10:54:27 13° 52° (NE) 10:57:49 435.910
GONETS M04 26 May 10:51:38 10:58:59 32° 276° (W) 11:06:20
Oscar 11 26 May 10:57:11 11:00:53 28° 290° (WNW) 11:04:36 145.826/435.025
PCSat 26 May 11:02:02 11:07:08 41° 305° (NW) 11:12:17 145.827
BUGSAT 1 26 May 11:07:38 11:10:48 21° 68° (ENE) 11:13:57 437.445
ZACube-1 26 May 11:08:33 11:11:52 23° 291° (WNW) 11:15:12 437.345
CUBEBUG 2 26 May 11:08:55 11:10:17 11° 296° (WNW) 11:11:40 437.445
CUBEBUG 1 26 May 11:13:31 11:14:23 11° 90° (E) 11:15:16 437.445
VELOX 1 26 May 11:16:01 11:17:18 11° 90° (E) 11:18:35 145.980
UNISAT 6 26 May 11:16:20 11:19:51 23° 265° (W) 11:23:20 437.425
POPSAT HIP 1 26 May 11:18:10 11:22:22 65° 75° (ENE) 11:26:34 437.405
QB50P1 26 May 11:18:43 11:22:55 67° 75° (ENE) 11:27:08 145.935-145.965
BEESAT 3 26 May 11:19:14 11:22:34 27° 114° (ESE) 11:25:56 437.485
QB50P2 26 May 11:20:26 11:24:41 74° 75° (ENE) 11:28:55 145.880/145.840
POLYITAN 1 26 May 11:22:53 11:27:07 76° 76° (ENE) 11:31:22 437.675
TIGRISAT 26 May 11:24:43 11:27:59 20° 266° (W) 11:31:13 435.000
HUMSAT D 26 May 11:29:27 11:33:30 53° 286° (WNW) 11:37:35 437.325/437.525
DANDE 26 May 11:33:27 11:37:06 18° 79° (E) 11:41:21 436.750
NANOSAT C BR1 26 May 11:38:01 11:42:14 76° 257° (WSW) 11:46:29 145.865
50 SAT 26 May 11:40:24 11:43:23 22° 95° (E) 11:46:20 437.505
Cosmos 2499 26 May 11:49:18 11:55:27 22° 279° (W) 12:01:44 435.465 / 435.565
AISAT 26 May 11:49:44 11:53:35 29° 96° (E) 11:57:23 437.250
CUSAT 1 26 May 11:50:19 11:56:15 62° 93° (E) 12:03:40 437.405
Oscar 19 26 May 11:54:18 11:56:30 13° 60° (ENE) 11:58:42 437.125/150
UKube-1 26 May 12:05:56 12:09:38 27° 96° (E) 12:13:19 .
DUCHIFAT 1 26 May 12:18:05 12:21:43 28° 264° (W) 12:25:22 145.980
BEESAT 2 26 May 12:18:23 12:22:20 73° 120° (ESE) 12:26:19 435.950
ESTCUBE 1 26 May 12:21:21 12:25:56 86° 287° (WNW) 12:30:29 437.505/2401.250
JAS-2 26 May 12:30:43 12:37:51 64° 71° (ENE) 12:45:35 435.910
BUGSAT 1 26 May 12:42:13 12:45:58 31° 263° (W) 12:49:44 437.445
CUBEBUG 1 26 May 12:46:46 12:51:07 64° 285° (WNW) 12:55:24 437.445
DX 1 26 May 12:49:26 12:53:48 76° 286° (WNW) 12:58:08 434.975-435.025
VELOX 1 26 May 12:49:47 12:54:11 63° 286° (WNW) 12:58:31 145.980
BEESAT 3 26 May 12:56:54 13:00:13 25° 310° (NW) 13:03:33 437.485
DANDE 26 May 13:13:43 13:18:53 61° 284° (WNW) 13:25:45 436.750
50 SAT 26 May 13:14:05 13:17:01 22° 291° (WNW) 13:19:56 437.505
SPROUT 26 May 13:20:20 13:24:36 70° 285° (WNW) 13:28:49 437.525
AISAT 26 May 13:26:20 13:29:55 25° 292° (WNW) 13:33:30 437.250
Oscar 19 26 May 13:29:53 13:35:05 83° 257° (WSW) 13:40:20 437.125/150
CUSAT 1 26 May 13:33:57 13:39:05 25° 296° (WNW) 13:45:02 437.405
Gurwin Techsat 1B 26 May 13:41:21 13:46:29 53° 72° (ENE) 13:51:39 435.225
UKube-1 26 May 13:42:02 13:45:35 25° 292° (WNW) 13:49:06 .
TISAT 1 26 May 13:49:47 13:53:57 66° 102° (ESE) 13:58:04 437.305
SWISSCUBE 26 May 13:52:40 13:55:12 14° 91° (E) 13:57:44 437.505
AO-85 26 May 13:53:47 13:56:11 14° 38° (NE) 13:58:30 145.980
ITUPSAT 1 26 May 13:58:01 14:00:36 14° 92° (E) 14:03:09 437.325
BEESAT 2 26 May 13:58:50 14:00:39 13° 318° (NW) 14:02:30 435.950
ITAMSAT 1 26 May 14:08:53 14:13:36 38° 69° (ENE) 14:18:22 435.822/435.867
Cosmos 2491 26 May 14:09:04 14:15:51 24° 66° (ENE) 14:22:33 435.465 / 435.565
AIST 2 26 May 14:16:05 14:20:12 82° 121° (ESE) 14:24:21 435.215
JAS-2 26 May 14:17:32 14:23:21 26° 270° (W) 14:29:33 435.910
BEESAT 26 May 14:21:23 14:25:22 26° 96° (E) 14:29:19 436.000
AO-7 26 May 14:43:16 14:50:59 45° 63° (ENE) 14:58:44 29.400- 29.500
Gurwin Techsat 1B 26 May 15:23:06 15:26:43 19° 268° (W) 15:30:22 435.225
TISAT 1 26 May 15:28:02 15:29:01 11° 298° (WNW) 15:30:01 437.305
SWISSCUBE 26 May 15:28:38 15:33:21 58° 287° (WNW) 15:38:03 437.505
AO-85 26 May 15:32:47 15:37:28 90° 177° (S) 15:41:42 145.980
ITUPSAT 1 26 May 15:34:03 15:38:47 58° 287° (WNW) 15:43:29 437.325
KKS-1 26 May 15:39:08 15:42:21 19° 94° (E) 15:45:32 437.445
MOZHAYETS 4 26 May 15:44:54 15:48:02 18° 93° (E) 15:51:11
ITAMSAT 1 26 May 15:48:56 15:53:09 25° 265° (W) 15:57:23 435.822/435.867
AIST 2 26 May 15:57:27 15:59:14 12° 319° (NW) 16:01:02 435.215
BEESAT 26 May 15:58:53 16:03:08 32° 291° (WNW) 16:07:22 436.000
HORYU 2 26 May 16:02:38 16:06:29 30° 69° (ENE) 16:10:20 437.375
YUBILEINY 26 May 16:04:04 16:12:24 54° 90° (E) 16:20:45 435.215
Cosmos 2491 26 May 16:04:47 16:13:31 72° 267° (W) 16:22:08 435.465 / 435.565
STARS 26 May 16:18:02 16:21:42 26° 96° (E) 16:25:21 437.465
NOAA 15 26 May 16:29:45 16:32:17 14° 60° (ENE) 16:34:49 137.62
AO-7 26 May 16:36:06 16:43:45 41° 261° (W) 16:51:29 29.400- 29.500
